Location: Blanot
(47.1713°N, 4.2340°E)
Time: 21:08:47
(UTC+00:00)

Helios 1B rocket - Pass Details

Date: 14 July 2020
Orbit: 574 x 584 km, 98.1° (Epoch: 14 August)

Event Time Altitude Azimuth Distance (km) Brightness Sun altitude
Rises 00:26:17 0° 13° (NNE) 2,810 7.5 -20.7°
Reaches altitude 10° 00:28:27 10° 13° (NNE) 1,904 6.3 -20.6°
Maximum altitude 00:32:35 84° 286° (WNW) 587 2.3 -20.5°
Enters shadow 00:33:20 59° 205° (SSW) 672 2.4 -20.5°
